When you browse on this site, cookies collect data to enhance your experience and personalize the content and advertising you see.
Visit our Privacy Policy to learn more. By continuing to use the site, you agree to this use of cookies and data.
  • In Hungary
  • List of Countries
  • For 7 days
  • Water Temperature
  • Weather Map
  • News
  • Weather Widgets
  • user-avatar
    Login

    Hourly Weather Esipovo

    Today, 28 February, Friday

    Time Temperature Precipitation Wind Pressure Humidity
    00:00 -1°C° 0 mm 3 mps 724 mmHg 91%
    01:00 -2°C° 0 mm 3 mps 725 mmHg 90%
    02:00 -4°C° 0 mm 3 mps 725 mmHg 89%
    03:00 -4°C° 0 mm 3 mps 725 mmHg 89%
    04:00 -4°C° 0 mm 3 mps 725 mmHg 90%
    05:00 -5°C° 0 mm 3 mps 726 mmHg 90%
    06:00 -4°C° 0 mm 3 mps 726 mmHg 89%
    07:00 -4°C° 0 mm 4 mps 726 mmHg 88%
    08:00 -3°C° 0 mm 4 mps 727 mmHg 87%
    09:00 -3°C° 0 mm 4 mps 727 mmHg 85%
    10:00 -2°C° 0 mm 4 mps 727 mmHg 83%
    11:00 -2°C° 0 mm 4 mps 727 mmHg 81%
    12:00 -2°C° 0 mm 4 mps 727 mmHg 79%
    13:00 -2°C° 0 mm 4 mps 727 mmHg 77%
    14:00 -2°C° 0 mm 4 mps 728 mmHg 75%
    15:00 -2°C° 0 mm 4 mps 728 mmHg 76%
    16:00 -1°C° 0 mm 3 mps 728 mmHg 77%
    17:00 -2°C° 0 mm 3 mps 728 mmHg 78%
    18:00 -2°C° 0 mm 3 mps 728 mmHg 81%
    19:00 -4°C° 0 mm 3 mps 728 mmHg 84%
    20:00 -4°C° 0 mm 3 mps 729 mmHg 87%
    21:00 -4°C° 0 mm 3 mps 729 mmHg 89%
    22:00 -4°C° 0 mm 3 mps 729 mmHg 90%
    23:00 -4°C° 0 mm 3 mps 729 mmHg 92%

    Tomorrow, 29 February, Saturday

    Time Temperature Precipitation Wind Pressure Humidity
    00:00 -4°C° 0 mm 3 mps 729 mmHg 91%
    01:00 -4°C° 0 mm 4 mps 730 mmHg 89%
    02:00 -3°C° 0 mm 4 mps 730 mmHg 88%
    03:00 -4°C° 0.2 mm 4 mps 730 mmHg 86%
    04:00 -5°C° 0.2 mm 5 mps 730 mmHg 85%
    05:00 -5°C° 0.2 mm 5 mps 730 mmHg 84%
    06:00 -5°C° 0.1 mm 5 mps 731 mmHg 84%
    07:00 -6°C° 0.1 mm 5 mps 731 mmHg 83%
    08:00 -6°C° 0.1 mm 5 mps 731 mmHg 83%
    09:00 -5°C° 0 mm 5 mps 732 mmHg 77%
    10:00 -5°C° 0 mm 5 mps 732 mmHg 72%
    11:00 -5°C° 0 mm 5 mps 732 mmHg 67%
    12:00 -4°C° 0 mm 5 mps 732 mmHg 66%
    13:00 -4°C° 0 mm 5 mps 733 mmHg 66%
    14:00 -4°C° 0 mm 5 mps 733 mmHg 65%
    15:00 -4°C° 0 mm 4 mps 733 mmHg 69%
    16:00 -4°C° 0 mm 3 mps 734 mmHg 72%
    17:00 -4°C° 0 mm 2 mps 734 mmHg 76%
    18:00 -4°C° 0 mm 2 mps 734 mmHg 78%
    19:00 -4°C° 0 mm 2 mps 735 mmHg 80%
    20:00 -5°C° 0 mm 2 mps 735 mmHg 83%
    21:00 -5°C° 0 mm 2 mps 736 mmHg 83%
    22:00 -5°C° 0 mm 2 mps 736 mmHg 84%
    23:00 -5°C° 0 mm 2 mps 736 mmHg 85%

    Day after tomorrow, 1 March, Sunday

    Time Temperature Precipitation Wind Pressure Humidity
    00:00 -5°C° 0 mm 2 mps 737 mmHg 84%
    01:00 -5°C° 0 mm 2 mps 737 mmHg 84%
    02:00 -6°C° 0 mm 3 mps 737 mmHg 84%
    03:00 -6°C° 0 mm 3 mps 737 mmHg 86%
    04:00 -6°C° 0 mm 3 mps 737 mmHg 88%
    05:00 -6°C° 0 mm 3 mps 738 mmHg 89%
    06:00 -5°C° 0 mm 3 mps 738 mmHg 89%
    07:00 -5°C° 0 mm 4 mps 738 mmHg 89%
    08:00 -4°C° 0 mm 4 mps 738 mmHg 89%
    09:00 -4°C° 0 mm 5 mps 738 mmHg 84%
    10:00 -2°C° 0 mm 5 mps 737 mmHg 79%
    11:00 -2°C° 0 mm 6 mps 737 mmHg 74%
    12:00 -1°C° 0 mm 6 mps 737 mmHg 71%
    13:00 -1°C° 0 mm 6 mps 737 mmHg 68%
    14:00 +1°C° 0 mm 6 mps 737 mmHg 65%
    15:00 0°C° 0 mm 5 mps 736 mmHg 66%
    16:00 0°C° 0 mm 5 mps 736 mmHg 68%
    17:00 0°C° 0 mm 5 mps 736 mmHg 69%
    18:00 0°C° 0 mm 5 mps 736 mmHg 69%
    19:00 0°C° 0 mm 5 mps 736 mmHg 70%
    20:00 0°C° 0 mm 5 mps 736 mmHg 71%
    21:00 0°C° 0 mm 5 mps 736 mmHg 74%
    22:00 -1°C° 0 mm 5 mps 736 mmHg 78%
    23:00 -1°C° 0 mm 5 mps 736 mmHg 81%

    2 March, Monday

    Time Temperature Precipitation Wind Pressure Humidity
    00:00 -1°C° 0.1 mm 5 mps 736 mmHg 85%
    01:00 -1°C° 0.1 mm 5 mps 736 mmHg 89%
    02:00 -1°C° 0.1 mm 5 mps 737 mmHg 93%
    03:00 -1°C° 0.4 mm 5 mps 736 mmHg 94%
    04:00 -1°C° 0.4 mm 5 mps 736 mmHg 95%
    05:00 -1°C° 0.4 mm 5 mps 736 mmHg 97%
    06:00 -1°C° 0.3 mm 5 mps 736 mmHg 97%
    07:00 -1°C° 0.3 mm 5 mps 736 mmHg 97%
    08:00 -1°C° 0.3 mm 5 mps 736 mmHg 97%
    09:00 0°C° 0.1 mm 5 mps 736 mmHg 96%
    10:00 0°C° 0.1 mm 5 mps 736 mmHg 95%
    11:00 0°C° 0.1 mm 5 mps 736 mmHg 94%
    12:00 0°C° 0 mm 5 mps 736 mmHg 95%
    13:00 0°C° 0 mm 5 mps 736 mmHg 96%
    14:00 0°C° 0 mm 5 mps 736 mmHg 96%
    15:00 0°C° 0.4 mm 4 mps 736 mmHg 97%
    16:00 -1°C° 0.4 mm 4 mps 737 mmHg 97%
    17:00 -1°C° 0.4 mm 4 mps 737 mmHg 97%
    18:00 -1°C° 0.1 mm 4 mps 737 mmHg 97%
    19:00 +1°C° 0.1 mm 3 mps 737 mmHg 97%
    20:00 +1°C° 0.1 mm 3 mps 737 mmHg 97%
    21:00 +1°C° 0 mm 3 mps 737 mmHg 97%
    22:00 +1°C° 0 mm 3 mps 738 mmHg 97%
    23:00 +1°C° 0 mm 3 mps 738 mmHg 97%

    3 March, Tuesday

    Time Temperature Precipitation Wind Pressure Humidity
    00:00 0°C° 0 mm 3 mps 738 mmHg 95%
    01:00 0°C° 0 mm 3 mps 737 mmHg 93%
    02:00 -1°C° 0 mm 4 mps 737 mmHg 90%
    03:00 -1°C° 0 mm 4 mps 737 mmHg 93%
    04:00 -1°C° 0 mm 4 mps 736 mmHg 95%
    05:00 -2°C° 0 mm 4 mps 736 mmHg 97%
    06:00 -1°C° 0.1 mm 4 mps 736 mmHg 97%
    07:00 -1°C° 0.1 mm 4 mps 735 mmHg 96%
    08:00 -1°C° 0.1 mm 4 mps 735 mmHg 96%
    09:00 -1°C° 0.1 mm 5 mps 735 mmHg 95%
    10:00 -1°C° 0.1 mm 5 mps 734 mmHg 94%
    11:00 0°C° 0.1 mm 5 mps 734 mmHg 93%
    12:00 0°C° 0.4 mm 5 mps 733 mmHg 94%
    13:00 0°C° 0.4 mm 4 mps 733 mmHg 96%
    14:00 -1°C° 0.4 mm 4 mps 733 mmHg 97%
    15:00 +1°C° 0.4 mm 3 mps 733 mmHg 97%
    16:00 +1°C° 0.4 mm 3 mps 733 mmHg 97%
    17:00 +1°C° 0.4 mm 3 mps 732 mmHg 98%
    18:00 +1°C° 0.1 mm 3 mps 733 mmHg 97%
    19:00 +1°C° 0.1 mm 3 mps 733 mmHg 96%
    20:00 +2°C° 0.1 mm 3 mps 733 mmHg 96%
    21:00 +2°C° 0 mm 3 mps 734 mmHg 95%
    22:00 +1°C° 0 mm 4 mps 734 mmHg 94%
    23:00 +1°C° 0 mm 4 mps 735 mmHg 94%

    4 March, Wednesday

    Time Temperature Precipitation Wind Pressure Humidity
    00:00 +1°C° 0 mm 4 mps 735 mmHg 93%
    01:00 +1°C° 0 mm 3 mps 736 mmHg 93%
    02:00 +1°C° 0 mm 3 mps 736 mmHg 93%
    03:00 +1°C° 0 mm 3 mps 737 mmHg 94%
    04:00 +1°C° 0 mm 2 mps 737 mmHg 95%
    05:00 +1°C° 0 mm 2 mps 738 mmHg 96%
    06:00 +1°C° 0 mm 2 mps 738 mmHg 96%
    07:00 +1°C° 0 mm 2 mps 739 mmHg 96%
    08:00 +2°C° 0 mm 1 mps 739 mmHg 96%
    09:00 +1°C° 0 mm 2 mps 740 mmHg 94%
    10:00 -1°C° 0 mm 2 mps 740 mmHg 92%
    11:00 -1°C° 0 mm 3 mps 741 mmHg 90%
    12:00 -1°C° 0 mm 3 mps 741 mmHg 88%
    13:00 -1°C° 0 mm 3 mps 741 mmHg 87%
    14:00 -1°C° 0 mm 3 mps 742 mmHg 85%
    15:00 -1°C° 0 mm 3 mps 742 mmHg 86%
    16:00 -2°C° 0 mm 3 mps 742 mmHg 86%
    17:00 -3°C° 0 mm 4 mps 742 mmHg 87%
    18:00 -3°C° 0 mm 4 mps 743 mmHg 85%
    19:00 -4°C° 0 mm 4 mps 743 mmHg 84%
    20:00 -4°C° 0 mm 4 mps 744 mmHg 82%
    21:00 -4°C° 0 mm 4 mps 744 mmHg 80%
    22:00 -6°C° 0 mm 5 mps 744 mmHg 78%
    23:00 -6°C° 0 mm 5 mps 744 mmHg 76%
    Show more